| time (UTC) | temp C | wind direction | speed KPH | gust KPH | rain 1hr cm | rain 24hr cm | rain mn cm | humidity % | barometer mb |
| 20260507094547 | 7 | 312 | 0.0 | 3.2 | 0.00 | 0.00 | 0.00 | 91 | 1021.0 |
| 20260507093045 | 7 | 283 | 0.0 | 3.2 | 0.00 | 0.00 | 0.00 | 91 | 1021.3 |
| 20260507091536 | 7 | 283 | 0.0 | 3.2 | 0.00 | 0.00 | 0.00 | 91 | 1021.3 |
| 20260507090037 | 7 | 312 | 0.0 | 3.2 | 0.00 | 0.00 | 0.00 | 91 | 1021.4 |
| 20260507084534 | 7 | 268 | 0.0 | 6.4 | 0.00 | 0.00 | 0.00 | 92 | 1021.3 |
| 20260507083020 | 7 | 280 | 1.6 | 6.4 | 0.00 | 0.00 | 0.00 | 92 | 1021.3 |
| 20260507081520 | 7 | 317 | 1.6 | 6.4 | 0.00 | 0.00 | 0.00 | 92 | 1021.3 |
| 20260507080001 | 8 | 293 | 1.6 | 6.4 | 0.00 | 0.00 | 0.00 | 92 | 1021.2 |
| 20260507074554 | 8 | 304 | 1.6 | 4.8 | 0.00 | 0.00 | 0.00 | 92 | 1021.3 |
| 20260507073007 | 8 | 284 | 3.2 | 6.4 | 0.00 | 0.00 | 0.00 | 92 | 1021.1 |
| 20260507071502 | 8 | 342 | 1.6 | 6.4 | 0.00 | 0.00 | 0.00 | 92 | 1021.1 |
| 20260507070058 | 8 | 295 | 0.0 | 3.2 | 0.00 | 0.00 | 0.00 | 92 | 1021.1 |
| 20260507064540 | 8 | 249 | 0.0 | 9.7 | 0.00 | 0.00 | 0.00 | 92 | 1021.2 |
| 20260507063045 | 8 | 276 | 0.0 | 4.8 | 0.00 | 0.00 | 0.00 | 92 | 1021.2 |
| 20260507061526 | 8 | 293 | 1.6 | 6.4 | 0.00 | 0.00 | 0.00 | 92 | 1021.1 |
| 20260507060024 | 8 | 312 | 1.6 | 4.8 | 0.00 | 0.00 | 0.00 | 91 | 1021.1 |
| 20260507054548 | 9 | 286 | 0.0 | 3.2 | 0.00 | 0.00 | 0.00 | 91 | 1021.2 |
| 20260507053049 | 9 | 286 | 0.0 | 3.2 | 0.00 | 0.00 | 0.00 | 91 | 1021.3 |
| 20260507051533 | 9 | 286 | 0.0 | 3.2 | 0.00 | 0.00 | 0.00 | 91 | 1021.3 |
| 20260507050050 | 9 | 312 | 0.0 | 4.8 | 0.00 | 0.00 | 0.00 | 91 | 1021.4 |
| 20260507044518 | 9 | 312 | 3.2 | 8.0 | 0.00 | 0.00 | 0.00 | 90 | 1021.5 |
| 20260507043006 | 9 | 287 | 1.6 | 6.4 | 0.00 | 0.00 | 0.00 | 90 | 1021.4 |
| 20260507041530 | 10 | 262 | 0.0 | 3.2 | 0.00 | 0.00 | 0.00 | 89 | 1021.4 |
| 20260507040034 | 9 | 262 | 3.2 | 6.4 | 0.00 | 0.00 | 0.00 | 89 | 1021.4 |
| 20260507034520 | 10 | 281 | 1.6 | 9.7 | 0.00 | 0.00 | 0.00 | 89 | 1021.3 |
| 20260507033022 | 10 | 294 | 3.2 | 8.0 | 0.00 | 0.00 | 0.00 | 88 | 1021.2 |
| 20260507031540 | 10 | 317 | 3.2 | 9.7 | 0.00 | 0.00 | 0.00 | 87 | 1021.1 |
| 20260507030032 | 10 | 295 | 3.2 | 6.4 | 0.00 | 0.00 | 0.00 | 87 | 1021.0 |
| 20260507024555 | 10 | 297 | 6.4 | 12.9 | 0.00 | 0.00 | 0.00 | 86 | 1020.8 |
| 20260507023053 | 11 | 270 | 3.2 | 8.0 | 0.00 | 0.00 | 0.00 | 85 | 1020.9 |
| 20260507021550 | 11 | 248 | 3.2 | 17.7 | 0.00 | 0.00 | 0.00 | 85 | 1020.8 |
| 20260507014555 | 12 | 285 | 3.2 | 12.9 | 0.00 | 0.00 | 0.00 | 83 | 1020.5 |
| 20260507013102 | 12 | 317 | 3.2 | 14.5 | 0.00 | 0.00 | 0.00 | 81 | 1020.4 |
| 20260507011556 | 13 | 328 | 3.2 | 12.9 | 0.00 | 0.00 | 0.00 | 78 | 1020.4 |
| 20260507010050 | 14 | 290 | 4.8 | 12.9 | 0.00 | 0.00 | 0.00 | 76 | 1020.4 |
| 20260507004558 | 14 | 263 | 3.2 | 6.4 | 0.00 | 0.00 | 0.00 | 75 | 1020.6 |
| 20260507003055 | 14 | 343 | 1.6 | 14.5 | 0.00 | 0.00 | 0.00 | 76 | 1020.8 |
| 20260507001554 | 15 | 354 | 0.0 | 11.3 | 0.00 | 0.00 | 0.00 | 76 | 1020.7 |
| 20260507000013 | 15 | 267 | 6.4 | 19.3 | 0.00 | 0.00 | 0.00 | 75 | 1020.7 |
| 20260506234507 | 15 | 298 | 4.8 | 12.9 | 0.00 | 0.00 | 0.00 | 72 | 1020.6 |
| 20260506233105 | 15 | 188 | 4.8 | 11.3 | 0.00 | 0.00 | 0.00 | 71 | 1020.3 |
| 20260506233002 | 15 | 207 | 4.8 | 11.3 | 0.00 | 0.00 | 0.00 | 70 | 1020.5 |
| 20260506231527 | 16 | 254 | 3.2 | 12.9 | 0.00 | 0.00 | 0.00 | 71 | 1020.6 |
| 20260506230037 | 15 | 305 | 4.8 | 16.1 | 0.00 | 0.00 | 0.00 | 73 | 1020.6 |
| 20260506224539 | 15 | 270 | 3.2 | 14.5 | 0.00 | 0.00 | 0.00 | 73 | 1020.6 |
| 20260506223047 | 15 | 274 | 3.2 | 17.7 | 0.00 | 0.00 | 0.00 | 75 | 1020.8 |
| 20260506221547 | 15 | 267 | 3.2 | 9.7 | 0.00 | 0.00 | 0.00 | 78 | 1021.0 |
| 20260506220041 | 15 | 13 | 1.6 | 12.9 | 0.00 | 0.00 | 0.00 | 78 | 1021.1 |
| 20260506214507 | 14 | 284 | 3.2 | 14.5 | 0.00 | 0.00 | 0.00 | 82 | 1021.0 |
| 20260506213008 | 13 | 252 | 8.0 | 17.7 | 0.00 | 0.00 | 0.00 | 82 | 1021.0 |
| 20260506211554 | 13 | 269 | 8.0 | 19.3 | 0.00 | 0.00 | 0.00 | 83 | 1020.9 |
| 20260506210052 | 15 | 296 | 8.0 | 14.5 | 0.00 | 0.00 | 0.00 | 79 | 1020.8 |
| 20260506204503 | 15 | 288 | 3.2 | 20.9 | 0.00 | 0.00 | 0.00 | 81 | 1020.7 |
| 20260506203059 | 15 | 326 | 8.0 | 19.3 | 0.00 | 0.00 | 0.00 | 77 | 1020.6 |
| 20260506201555 | 16 | 300 | 8.0 | 16.1 | 0.00 | 0.00 | 0.00 | 75 | 1020.4 |
| 20260506200053 | 16 | 295 | 6.4 | 12.9 | 0.00 | 0.00 | 0.00 | 78 | 1020.4 |
| 20260506194513 | 15 | 270 | 3.2 | 14.5 | 0.00 | 0.00 | 0.00 | 79 | 1020.4 |
| 20260506193033 | 14 | 297 | 8.0 | 16.1 | 0.00 | 0.00 | 0.00 | 81 | 1020.6 |
| 20260506191545 | 16 | 284 | 6.4 | 16.1 | 0.00 | 0.00 | 0.00 | 77 | 1020.3 |
| 20260506190004 | 15 | 282 | 3.2 | 8.0 | 0.00 | 0.00 | 0.00 | 78 | 1020.0 |
| 20260506184531 | 16 | 326 | 4.8 | 8.0 | 0.00 | 0.00 | 0.00 | 76 | 1020.1 |
| 20260506183033 | 14 | 22 | 1.6 | 8.0 | 0.00 | 0.00 | 0.00 | 83 | 1020.4 |
| 20260506181535 | 13 | 27 | 0.0 | 6.4 | 0.00 | 0.00 | 0.00 | 87 | 1020.4 |
| 20260506180050 | 12 | 356 | 3.2 | 8.0 | 0.00 | 0.00 | 0.00 | 88 | 1020.5 |
| 20260506174543 | 12 | 317 | 4.8 | 12.9 | 0.00 | 0.00 | 0.00 | 86 | 1020.3 |
| 20260506173042 | 15 | 263 | 6.4 | 14.5 | 0.00 | 0.00 | 0.00 | 79 | 1019.9 |
| 20260506171557 | 13 | 302 | 6.4 | 9.7 | 0.00 | 0.00 | 0.00 | 83 | 1019.9 |
| 20260506170055 | 18 | 260 | 3.2 | 8.0 | 0.00 | 0.00 | 0.00 | 69 | 1019.8 |
| 20260506164539 | 12 | 53 | 0.0 | 6.4 | 0.00 | 0.00 | 0.00 | 87 | 1019.8 |
| 20260506163042 | 13 | 305 | 1.6 | 4.8 | 0.00 | 0.00 | 0.00 | 88 | 1020.0 |
| 20260506161527 | 12 | 317 | 3.2 | 8.0 | 0.00 | 0.00 | 0.00 | 89 | 1020.0 |
| 20260506160032 | 11 | 317 | 3.2 | 8.0 | 0.00 | 0.00 | 0.00 | 90 | 1019.8 |
| 20260506154525 | 13 | 261 | 0.0 | 3.2 | 0.00 | 0.00 | 0.00 | 85 | 1019.7 |
| 20260506153015 | 12 | 39 | 0.0 | 6.4 | 0.00 | 0.00 | 0.00 | 90 | 1019.8 |
| 20260506151500 | 11 | 238 | 1.6 | 11.3 | 0.00 | 0.00 | 0.00 | 94 | 1019.5 |
| 20260506150053 | 10 | 87 | 4.8 | 11.3 | 0.00 | 0.00 | 0.00 | 95 | 1019.0 |
| 20260506144558 | 10 | 93 | 3.2 | 6.4 | 0.00 | 0.00 | 0.00 | 96 | 1019.4 |
| 20260506143029 | 9 | 279 | 0.0 | 0.0 | 0.00 | 0.00 | 0.00 | 96 | 1019.7 |
| 20260506141522 | 9 | 279 | 0.0 | 0.0 | 0.00 | 0.00 | 0.00 | 96 | 1020.0 |
| 20260506140021 | 9 | 279 | 0.0 | 3.2 | 0.00 | 0.00 | 0.00 | 96 | 1019.7 |
| 20260506134509 | 8 | 279 | 3.2 | 6.4 | 0.00 | 0.00 | 0.00 | 96 | 1019.7 |
| 20260506133006 | 8 | 292 | 0.0 | 3.2 | 0.00 | 0.00 | 0.00 | 96 | 1019.4 |
| 20260506131556 | 8 | 292 | 0.0 | 3.2 | 0.00 | 0.00 | 0.00 | 96 | 1019.3 |
| 20260506130050 | 8 | 292 | 0.0 | 1.6 | 0.00 | 0.00 | 0.00 | 96 | 1019.1 |
| 20260506124538 | 8 | 292 | 0.0 | 0.0 | 0.00 | 0.00 | 0.00 | 96 | 1019.2 |
| 20260506123033 | 8 | 292 | 0.0 | 3.2 | 0.00 | 0.00 | 0.00 | 96 | 1018.9 |
| 20260506121524 | 8 | 292 | 0.0 | 3.2 | 0.00 | 0.00 | 0.00 | 96 | 1018.7 |
| 20260506120035 | 8 | 285 | 1.6 | 4.8 | 0.00 | 0.00 | 0.00 | 96 | 1018.9 |
| 20260506114520 | 9 | 303 | 0.0 | 4.8 | 0.00 | 0.00 | 0.00 | 96 | 1018.9 |
| 20260506113048 | 9 | 286 | 0.0 | 3.2 | 0.00 | 0.00 | 0.00 | 96 | 1018.8 |
| 20260506111526 | 9 | 286 | 0.0 | 3.2 | 0.00 | 0.00 | 0.00 | 96 | 1018.7 |
| 20260506110014 | 9 | 286 | 1.6 | 3.2 | 0.00 | 0.00 | 0.00 | 96 | 1018.7 |
| 20260506104544 | 9 | 286 | 0.0 | 0.0 | 0.00 | 0.00 | 0.00 | 96 | 1018.4 |
| 20260506103027 | 9 | 286 | 0.0 | 0.0 | 0.00 | 0.00 | 0.00 | 96 | 1018.2 |
| 20260506101517 | 9 | 286 | 0.0 | 0.0 | 0.00 | 0.00 | 0.00 | 96 | 1018.2 |
| 20260506100028 | 9 | 286 | 0.0 | 3.2 | 0.00 | 0.00 | 0.00 | 96 | 1018.2 |